RADUGA-1M 3 [+]

Last updated on Wed Jun 28 2023 00:02:57 GMT+0000 (Coordinated Universal Time)

1 39375U 13062A 23177.69743389 .00000171 00000+0 00000+0 0 9995 2 39375 3.1781 85.5057 0001761 233.5334 241.5354 1.00272337 35239

Satellite not in orbit

RADUGA-1M 3 [+]